[[{"header":{"parameterUnit":"m.s-1","parameterCategory":1,"la1":30.2991,"la2":30.254,"lo1":-89.0895,"lo2":-89.0444,"dy":0.0017,"dx":0.0017,"nx":28,"ny":28,"refTime":"2024-12-04T09:00:00:Z","depth":0,"parameterNumber":2,"parameterNumberName":"U-component_of_WINDS"},"data":[0,0,0,0,0,0,0,0,0,0,0,0,0,0,0,0,0,0,0,0,0,0,0,0,0,0,0,0,0,0,0,0,0,0,0,0,0,0,0,0,0,0,0,0,0,0,0,0,0,0,0,0,0,0,0,0,0,0,-4.3326,-4.3327,0,-4.337,-4.337,-4.3371,-4.3239,-4.3235,-4.3231,-4.3227,-4.3275,-4.3279,-4.3284,0,0,0,0,0,0,0,0,0,0,0,0,0,-4.3132,-4.3137,-4.3326,-4.3327,-4.3327,-4.337,-4.337,-4.3371,-4.3239,-4.3234,-4.323,-4.3225,-4.3273,-4.3279,-4.3285,0,0,0,0,0,0,0,0,0,0,0,0,0,-4.32,-4.3138,-4.3326,-4.3267,-4.3262,-4.3369,-4.337,-4.3371,-4.324,-4.3234,-4.3228,-4.3223,-4.3271,-4.3278,-4.3286,-4.3454,0,0,-4.3309,-4.3312,0,0,0,0,0,0,0,0,-4.3197,-4.3208,-4.3275,-4.3271,-4.3266,-4.3292,-4.3319,-4.3399,-4.3242,-4.3249,-4.3227,-4.322,-4.3286,-4.3292,-4.3313,-4.3456,-4.3458,-4.3309,-4.3314,-4.3317,-4.3319,0,0,0,0,0,0,0,-4.3192,-4.3205,-4.3343,-4.3276,-4.327,-4.3239,-4.3242,-4.3334,-4.3301,-4.3248,-4.3238,-4.3245,-4.3282,-4.3306,-4.3313,-4.3458,-4.3309,-4.3316,-4.3321,-4.3323,-4.3742,-4.3749,0,0,0,0,0,0,-4.3195,-4.3202,-4.3342,-4.3345,-4.3215,-4.3247,-4.3251,-4.329,-4.3299,-4.3295,-4.325,-4.3239,-4.3296,-4.3305,-4.3314,-4.3512,-4.3317,-4.3324,-4.3329,-4.3736,-4.3744,-4.3751,0,0,0,0,0,0,-4.3191,-4.3209,-4.334,-4.3271,-4.3285,-4.3257,-4.3302,-4.3294,-4.3318,-4.3301,-4.3295,-4.3281,-4.3292,-4.3304,-4.342,-4.3512,-4.3328,-4.3334,-4.3728,-4.3738,-4.3747,-4.3909,0,0,0,0,0,0,-4.3186,-4.3208,-4.3271,-4.3273,-4.3289,-4.3444,-4.3308,-4.3299,-4.3331,-4.3317,-4.3328,-4.3324,-4.3288,-4.3409,-4.3428,-4.3519,-4.334,-4.372,-4.3733,-4.3744,-4.3895,-4.3923,-4.3947,0,0,0,0,0,-4.318,-4.3315,-4.3274,-4.3292,-4.3367,-4.345,-4.3459,-4.3414,-4.3339,-4.3402,-4.3392,-4.3324,-4.3499,-4.3422,-4.3442,-4.3537,-4.3714,-4.3729,-4.3743,-4.3884,-4.3918,-4.3946,0,0,0,0,0,0,-4.3325,-4.3314,-4.3269,-4.3409,-4.3431,-4.3427,-4.3506,-4.3451,-4.3496,-4.348,-4.3423,-4.3427,-4.3554,-4.3557,-4.3472,-4.37,-4.3594,-4.3613,-4.3694,-4.3726,-4.3751,-4.3748,-4.3347,0,0,0,0,0,-4.3373,-4.344,-4.3427,-4.3552,-4.3566,-4.3534,-4.3569,-4.3532,-4.3553,-4.3562,-4.3559,-4.3584,-4.3644,-4.3685,-4.374,-4.3895,-4.3896,-4.397,-4.3996,-4.4017,-4.4035,-4.4118,-4.4151,-4.38,-4.38,-4.3799,0,0,-4.3473,-4.3476,-4.3522,-4.3581,-4.3594,-4.3666,-4.3543,-4.3624,-4.3678,-4.3574,-4.3684,-4.3684,-4.3707,-4.3844,-4.3904,-4.385,-4.4132,-4.4036,-4.4053,-4.4059,-4.4137,-4.417,-4.42,-4.381,-4.3808,-4.3806,0,0,-4.3692,-4.3701,-4.3806,-4.3821,-4.3842,-4.3821,-4.3846,-4.3851,-4.3847,-4.3955,-4.388,-4.3943,-4.4048,-4.4068,-4.4092,-4.4321,-4.4261,-4.434,-4.4475,-4.4557,-4.4585,-4.4609,-4.4692,-4.4722,-4.4358,-4.4358,-4.4358,0,-4.3815,-4.3919,-4.3867,-4.3954,-4.3983,-4.3892,-4.3999,-4.4017,-4.4056,-4.4078,-4.4017,-4.4147,-4.4157,-4.4297,-4.4353,-4.4376,-4.4404,-4.4338,-4.4585,-4.4609,-4.4631,-4.4709,-4.474,-4.4368,-4.4367,-4.4366,-4.4365,0,-4.4069,-4.4143,-4.4225,-4.4264,-4.4302,-4.4399,-4.4362,-4.4408,-4.4368,-4.4354,-4.4466,-4.4474,-4.4529,-4.456,-4.4522,-4.4696,-4.4662,-4.4595,-4.4486,-4.4675,-4.4747,-4.4777,-4.4381,-4.4378,-4.4375,-4.4373,0,0,-4.438,-4.4389,-4.4421,-4.4437,-4.4454,-4.4511,-4.4604,-4.4657,-4.4698,-4.4728,-4.4805,-4.4897,-4.4834,-4.4861,-4.4825,-4.4897,-4.5079,-4.482,-4.482,-4.4869,-4.5273,-4.5324,-4.5359,-4.5039,-4.5045,-4.5049,-4.5271,0,-4.4597,-4.4755,-4.4711,-4.487,-4.4938,-4.4854,-4.4935,-4.4955,-4.4945,-4.5002,-4.499,-4.5056,-4.4968,-4.4984,-4.5052,-4.5043,-4.516,-4.5026,-4.5112,-4.5116,-4.5109,-4.5397,-4.5451,-4.566,-4.5299,-4.5303,-4.5307,0,-4.487,-4.491,-4.5076,-4.5082,-4.5109,-4.5183,-4.5228,-4.5284,-4.5306,-4.5293,-4.5324,-4.5274,-4.5367,-4.5258,-4.5386,-4.5297,-4.5329,-4.5331,-4.5338,-4.5344,-4.5223,-4.5412,-4.5725,-4.5757,-4.5351,-4.5347,-4.5344,0,-4.5081,-4.5177,-4.5288,-4.5305,-4.5316,-4.537,-4.5377,-4.5392,-4.5427,-4.5468,-4.549,-4.5542,-4.557,-4.5612,-4.5577,-4.5501,-4.5711,-4.5599,-4.5704,-4.5706,-4.5752,-4.575,-4.6076,-4.5774,-4.5773,-4.5772,-4.5772,0,-4.5328,-4.5433,-4.5383,-4.5452,-4.5567,-4.5517,-4.5633,-4.563,-4.5645,-4.5713,-4.5644,-4.5709,-4.5659,-4.572,-4.5694,-4.5805,-4.5818,-4.5812,-4.5803,-4.5818,-4.5819,-4.5839,-4.5823,-4.5781,-4.5779,-4.5777,-4.5776,0,-4.5583,-4.5554,-4.567,-4.5671,-4.5673,-4.5759,-4.5759,-4.5824,-4.5808,-4.5895,-4.5912,-4.5888,-4.5957,-4.5927,-4.5999,-4.5982,-4.6124,-4.6097,-4.6117,-4.611,-4.6217,-4.6208,-4.6567,-4.6612,-4.6281,-4.6284,-4.6287,0,-4.5742,-4.5821,-4.583,-4.587,-4.5881,-4.5947,-4.5982,-4.5936,-4.5976,-4.6007,-4.6068,-4.6131,-4.6178,-4.6293,-4.6283,-4.6339,-4.6312,-4.6434,-4.632,-4.6333,-4.6315,-4.631,-4.6318,-4.6457,-4.6461,-4.6464,-4.6467,0,-4.6028,-4.601,-4.6063,-4.6112,-4.6156,-4.6193,-4.6223,-4.6261,-4.6216,-4.6265,-4.6334,-4.6371,-4.6445,-4.6509,-4.6558,-4.6566,-4.6511,-4.6503,-4.653,-4.6546,-4.6555,-4.6552,-4.618,-4.6495,-4.6492,-4.649,-4.6489,-4.6487,-4.624,-4.6306,-4.6323,-4.6385,-4.6403,-4.6434,-4.6494,-4.6487,-4.6543,-4.6599,-4.6569,-4.665,-4.6671,-4.6731,-4.6748,-4.6811,-4.6763,-4.6803,-4.6813,-4.6823,-4.6838,-4.6545,-4.682,-4.6819,-4.6818,-4.6818,-4.6817,0,-4.6523,-4.6529,-4.6587,-4.6632,-4.6681,-4.6623,-4.6654,-4.67,-4.6772,-4.6795,-4.6844,-4.6924,-4.6986,-4.6981,-4.7038,-4.709,-4.7066,-4.7107,-4.7103,-4.7106,-4.6877,-4.6848,-4.7126,-4.7125,-4.7125,-4.7125,-4.7125,-4.7125,-4.6675,-4.6784,-4.6769,-4.6887,-4.6893,-4.6971,-4.6994,-4.7023,-4.7041,-4.7134,-4.7184,-4.7181,-4.7194,-4.7251,-4.7306,-4.7303,-4.7328,-4.7378,-4.7366,-4.7152,-4.7122,-4.7093,-4.7065,-4.7384,-4.7384,-4.7589,-4.7591,-4.7593]},{"header":{"parameterUnit":"m.s-1","parameterCategory":1,"la1":30.2991,"la2":30.254,"lo1":-89.0895,"lo2":-89.0444,"dy":0.0017,"dx":0.0017,"nx":28,"ny":28,"refTime":"2024-12-04T09:00:00:Z","depth":0,"parameterNumber":3,"parameterNumberName":"V-component_of_WINDS"},"data":[0,0,0,0,0,0,0,0,0,0,0,0,0,0,0,0,0,0,0,0,0,0,0,0,0,0,0,0,0,0,0,0,0,0,0,0,0,0,0,0,0,0,0,0,0,0,0,0,0,0,0,0,0,0,0,0,0,0,0.0413,0.0413,0,0.0392,0.0391,0.0391,0.0375,0.0375,0.0375,0.0374,0.0351,0.0351,0.0351,0,0,0,0,0,0,0,0,0,0,0,0,0,0.044,0.044,0.0413,0.0413,0.0413,0.0392,0.0391,0.0391,0.0375,0.0375,0.0374,0.0374,0.0352,0.0351,0.0351,0,0,0,0,0,0,0,0,0,0,0,0,0,0.0424,0.044,0.0413,0.0402,0.0401,0.0392,0.0391,0.0391,0.0375,0.0375,0.0374,0.0374,0.0352,0.0351,0.035,0.0351,0,0,0.0348,0.0348,0,0,0,0,0,0,0,0,0.0425,0.0423,0.0404,0.0403,0.0401,0.0386,0.0392,0.0377,0.0375,0.0385,0.0374,0.0374,0.0363,0.0361,0.0358,0.0349,0.0348,0.0348,0.0348,0.0347,0.0347,0,0,0,0,0,0,0,0.0426,0.0424,0.0405,0.0404,0.0402,0.0398,0.0396,0.039,0.0375,0.0384,0.0383,0.038,0.0362,0.0359,0.0357,0.0348,0.0348,0.0348,0.0347,0.0347,0.034,0.034,0,0,0,0,0,0,0.0429,0.0425,0.0405,0.0404,0.0413,0.0398,0.0395,0.0391,0.0375,0.0373,0.0381,0.038,0.036,0.0358,0.0356,0.0356,0.0347,0.0347,0.0346,0.034,0.034,0.0341,0,0,0,0,0,0,0.043,0.0428,0.0406,0.0414,0.0411,0.0398,0.0393,0.0391,0.0387,0.0373,0.037,0.0379,0.036,0.0357,0.0352,0.0355,0.0347,0.0346,0.034,0.034,0.034,0.0356,0,0,0,0,0,0,0.0431,0.0428,0.0428,0.0414,0.0411,0.0403,0.0393,0.039,0.0386,0.0384,0.0371,0.0369,0.0359,0.0354,0.0352,0.0354,0.0345,0.0339,0.034,0.034,0.0355,0.0356,0.0358,0,0,0,0,0,0.0432,0.0432,0.0428,0.0425,0.041,0.0403,0.0401,0.039,0.0386,0.0386,0.0377,0.0369,0.0355,0.0353,0.0351,0.0353,0.0339,0.034,0.034,0.0354,0.0356,0.0358,0,0,0,0,0,0,0.0446,0.043,0.0425,0.0421,0.0414,0.04,0.0399,0.0392,0.0385,0.0384,0.0371,0.0369,0.0365,0.0359,0.0357,0.0353,0.0346,0.0346,0.0357,0.0359,0.0361,0.0362,0.0345,0,0,0,0,0,0.0448,0.0444,0.043,0.0428,0.0425,0.0413,0.0409,0.0402,0.0393,0.039,0.0381,0.0372,0.0366,0.0362,0.0356,0.0354,0.0351,0.0354,0.0356,0.0357,0.0357,0.0357,0.0358,0.0342,0.0342,0.0342,0,0,0.0454,0.0445,0.0442,0.0431,0.0424,0.042,0.041,0.0406,0.0402,0.0389,0.0384,0.0377,0.0367,0.0364,0.0362,0.0358,0.0361,0.0358,0.0359,0.0358,0.0358,0.0359,0.0361,0.0343,0.0343,0.0343,0,0,0.0461,0.0454,0.0452,0.0446,0.0436,0.0428,0.0428,0.0415,0.041,0.0406,0.0396,0.0392,0.0381,0.0375,0.037,0.0377,0.037,0.0376,0.0383,0.0383,0.0384,0.0385,0.0389,0.039,0.0376,0.0376,0.0376,0,0.0469,0.0462,0.0452,0.0448,0.0444,0.0432,0.0431,0.0425,0.0413,0.041,0.0406,0.0394,0.0386,0.0382,0.0384,0.0381,0.038,0.0377,0.0385,0.0386,0.0387,0.039,0.0391,0.0377,0.0377,0.0376,0.0376,0,0.0473,0.0468,0.0468,0.0458,0.0453,0.0451,0.044,0.0437,0.043,0.0423,0.0419,0.041,0.0402,0.04,0.0393,0.0395,0.0394,0.0388,0.038,0.0389,0.0392,0.0393,0.0378,0.0378,0.0377,0.0377,0,0,0.0487,0.0473,0.0473,0.0468,0.0457,0.0454,0.0451,0.0444,0.0442,0.0434,0.0432,0.0424,0.0419,0.0414,0.0407,0.0406,0.0414,0.04,0.04,0.0404,0.0416,0.0421,0.0423,0.0409,0.0409,0.0409,0.0417,0,0.0493,0.0488,0.0479,0.0477,0.0473,0.0463,0.0461,0.0454,0.0447,0.0443,0.0436,0.0431,0.0424,0.0421,0.0421,0.0413,0.0416,0.0412,0.0407,0.0407,0.041,0.0424,0.0428,0.0437,0.0418,0.0418,0.0418,0,0.0499,0.0494,0.0491,0.0482,0.048,0.0478,0.0471,0.0468,0.046,0.0455,0.0451,0.0443,0.044,0.0434,0.043,0.0427,0.0425,0.0421,0.0421,0.042,0.0413,0.0424,0.0439,0.044,0.042,0.042,0.042,0,0.0511,0.0503,0.05,0.0497,0.0486,0.0485,0.048,0.0472,0.0469,0.0463,0.0461,0.0455,0.0452,0.0447,0.0438,0.0435,0.0436,0.0429,0.0432,0.0433,0.0433,0.0433,0.0448,0.0431,0.0431,0.0431,0.0431,0,0.0519,0.0518,0.0506,0.0504,0.0503,0.0494,0.0493,0.0487,0.0481,0.0478,0.0469,0.0467,0.0455,0.0452,0.0445,0.0443,0.0441,0.0438,0.0436,0.0439,0.0439,0.0437,0.0436,0.0431,0.0431,0.0431,0.0431,0,0.0531,0.0523,0.052,0.051,0.0508,0.0508,0.0499,0.0498,0.0491,0.0489,0.0487,0.0477,0.0473,0.0464,0.0457,0.0452,0.0453,0.0449,0.0455,0.0454,0.0459,0.0459,0.0473,0.0475,0.0456,0.0456,0.0457,0,0.0537,0.0536,0.0527,0.0525,0.0521,0.0517,0.0514,0.0505,0.0502,0.0495,0.0494,0.049,0.0485,0.0479,0.0471,0.0466,0.0463,0.0468,0.0462,0.0465,0.0463,0.0464,0.0464,0.047,0.047,0.047,0.047,0,0.0548,0.0544,0.054,0.0536,0.0533,0.0528,0.0523,0.0522,0.0512,0.0509,0.0506,0.0502,0.0496,0.0492,0.0486,0.0481,0.0474,0.0473,0.0473,0.0476,0.048,0.0479,0.046,0.0472,0.0472,0.0472,0.0472,0.0472,0.0557,0.0557,0.055,0.0547,0.0542,0.0539,0.0537,0.0531,0.0528,0.0522,0.0517,0.0514,0.0508,0.0499,0.0495,0.0493,0.0489,0.049,0.049,0.049,0.0492,0.048,0.0491,0.0491,0.0491,0.0491,0.0491,0,0.0568,0.0564,0.0561,0.0555,0.0553,0.0547,0.0542,0.054,0.0538,0.0533,0.0529,0.0525,0.0521,0.0514,0.0509,0.0509,0.0506,0.0508,0.0508,0.0507,0.0495,0.0495,0.0511,0.0511,0.0511,0.0511,0.0511,0.0511,0.0573,0.0572,0.0569,0.0566,0.0561,0.0559,0.0556,0.0553,0.0549,0.0545,0.0542,0.0538,0.0532,0.0527,0.0524,0.0522,0.0521,0.0524,0.0521,0.051,0.0508,0.0506,0.0506,0.0524,0.0524,0.0533,0.0533,0.0533]}]]